This demonstration page uses our WeatherBlox Daily Observations layout. Learn more.

Left ArrowRight Arrow

Hourly Observations for February 10, 2016

Temp ( °F °C ) Dew Point ( °F °C ) Humidity (%) Winds ( mph kmh ) Pressure ( in mb ) Visibility ( mi km ) Precip ( " mm )
12:59 am 00:59 Cloudy 35 1.7 17 -8.3 48 48 W 17 28 29.74 1007 10 16 0.00 0.00
1:59 am 01:59 Partly Cloudy 33 0.6 16 -8.9 49 49 W 14 22 29.75 1008 10 16 0.00 0.00
2:59 am 02:59 Mostly Clear 32 0 15 -9.4 50 50 W 15 24 29.76 1008 10 16 0.00 0.00
3:59 am 03:59 Mostly Clear 31 -0.6 14 -10 49 49 W 13 20 29.76 1008 10 16 0.00 0.00
4:59 am 04:59 Mostly Cloudy 31 -0.6 15 -9.4 52 52 W 12 19 29.77 1008 10 16 0.00 0.00
5:59 am 05:59 Cloudy 31 -0.6 16 -8.9 54 54 W 14 22 29.80 1009 10 16 0.00 0.00
6:59 am 06:59 Cloudy 31 -0.6 18 -7.8 59 59 W 15 24 29.83 1010 10 16 0.00 0.00
7:59 am 07:59 Mostly Cloudy 31 -0.6 18 -7.8 59 59 W 12 19 29.85 1011 10 16 0.00 0.00
8:59 am 08:59 Partly Cloudy 32 0 17 -8.3 54 54 W 12 19 29.86 1011 10 16 0.00 0.00
9:59 am 09:59 Mostly Sunny 35 1.7 17 -8.3 48 48 W 10 17 29.87 1012 10 16 0.00 0.00
10:59 am 10:59 Sunny 37 2.8 17 -8.3 44 44 W 10 17 29.86 1011 10 16 0.00 0.00
11:59 am 11:59 Sunny 39 3.9 17 -8.3 41 41 WNW 13 20 29.85 1011 10 16 0.00 0.00
12:59 pm 12:59 Mostly Sunny 40 4.4 16 -8.9 38 38 W 12 19 29.83 1010 10 16 0.00 0.00
1:59 pm 13:59 Partly Cloudy 42 5.6 18 -7.8 38 38 W 9 15 29.81 1010 10 16 0.00 0.00
2:59 pm 14:59 Partly Cloudy 42 5.6 17 -8.3 36 36 W 13 20 29.80 1009 10 16 0.00 0.00
3:59 pm 15:59 Partly Cloudy 41 5 16 -8.9 36 36 W 14 22 29.82 1010 10 16 0.00 0.00
4:59 pm 16:59 Partly Cloudy 41 5 16 -8.9 36 36 W 13 20 29.83 1010 10 16 0.00 0.00
5:16 pm 17:16 Mostly Cloudy 40 4.4 15 -9.4 36 36 WSW 12 19 29.83 1010 10 16 0.00 0.00
5:59 pm 17:59 Partly Cloudy 40 4.4 14 -10 35 35 W 15 24 29.85 1011 10 16 0.00 0.00
6:59 pm 18:59 Mostly Cloudy 39 3.9 16 -8.9 39 39 W 14 22 29.88 1012 10 16 0.00 0.00
7:59 pm 19:59 Cloudy 37 2.8 15 -9.4 41 41 WNW 24 39 29.90 1012 10 16 0.00 0.00
8:59 pm 20:59 Cloudy 35 1.7 11 -11.7 37 37 WNW 25 41 29.92 1013 10 16 0.00 0.00
9:59 pm 21:59 Mostly Cloudy 32 0 10 -12.2 40 40 W 22 35 29.96 1014 10 16 0.00 0.00
10:59 pm 22:59 Partly Cloudy 31 -0.6 9 -12.8 40 40 W 20 31 29.97 1015 10 16 0.00 0.00
11:59 pm 23:59 Mostly Clear 30 -1.1 10 -12.2 43 43 W 18 30 29.98 1015 10 16 0.00 0.00

Powered by AerisWeather